Theta_e
336 324 320 316 315 315 314 311 311 312 312 312 311 312 312 312 313 314 315 316 317 317 318 318 320 323 322 324 327 326 319 319 325 336 340 343 343 344 343 343 345 349 339
338 324 319 315 316 316 314 311 313 314 314 313 313 313 313 314 315 316 316 316 318 322 323 324 327 329 329 329 328 328 328 327 324 317 328 337 343 343 343 342 344 348 342
332 325 318 316 316 317 314 311 314 316 316 315 314 314 315 315 318 319 321 323 323 326 327 330 331 331 332 333 333 331 330 329 329 329 315 320 337 343 345 341 343 346 346
331 324 318 316 316 317 315 312 314 316 316 316 316 316 317 317 317 318 320 326 330 331 331 333 333 333 333 334 335 335 333 332 330 329 317 311 320 326 332 342 341 342 347
331 324 319 317 317 317 316 313 314 316 317 317 317 317 317 318 319 322 323 326 331 334 334 336 336 335 335 335 334 334 335 334 334 333 322 317 321 324 331 341 342 341 343
335 327 321 317 317 317 317 314 313 316 317 317 318 318 319 319 320 321 324 328 333 336 337 338 338 338 337 336 335 335 334 335 334 332 331 329 326 326 341 339 343 342 341
338 331 324 318 317 317 317 316 313 315 317 318 318 319 320 321 321 322 325 328 333 337 339 339 338 337 336 336 335 334 334 335 335 330 333 333 333 331 331 332 338 341 341
335 338 328 323 320 318 318 317 315 315 316 318 318 319 320 321 322 323 324 327 332 339 338 336 337 334 332 332 332 333 333 333 334 332 334 335 335 335 330 330 329 331 340
335 335 337 328 324 321 319 320 318 315 316 317 318 319 321 322 322 323 323 323 330 336 334 330 327 326 325 326 329 332 333 334 332 327 329 334 334 333 331 329 329 328 331
337 335 338 336 331 324 320 320 320 319 316 317 319 320 322 324 324 324 323 323 328 330 330 328 328 327 325 325 327 330 334 334 334 328 327 330 333 335 333 330 328 325 324
336 336 337 336 335 331 324 320 320 321 319 317 319 321 325 326 326 325 326 333 335 334 332 331 330 330 326 326 326 328 333 334 332 329 325 327 331 334 337 330 328 324 326
330 339 336 337 336 336 333 327 322 322 323 323 322 324 327 326 326 326 334 336 336 337 335 331 330 330 328 327 324 328 331 327 328 327 329 331 331 333 333 329 328 327 323
330 332 340 337 337 337 338 337 333 329 329 328 326 325 327 327 326 335 337 337 333 335 334 331 331 332 329 330 328 327 329 328 329 329 329 329 331 332 332 331 329 326 324
330 330 335 340 338 340 343 341 338 335 333 329 328 329 329 333 337 339 339 337 334 334 332 333 332 332 331 331 331 330 330 331 332 332 331 331 330 332 334 330 329 325 326
330 330 330 336 340 341 345 343 342 340 339 337 336 332 332 336 339 342 337 332 334 335 334 334 333 332 331 330 330 328 329 331 330 331 330 331 333 332 332 332 329 326 325
330 331 329 330 335 341 345 342 342 342 341 340 341 339 337 338 341 340 335 335 336 334 333 332 333 332 331 329 329 328 327 327 329 330 331 330 332 331 330 330 330 333 333
332 330 328 328 330 336 342 342 343 344 344 344 342 340 340 342 342 338 335 336 336 335 334 332 332 332 332 330 329 329 329 328 327 330 330 330 331 330 329 328 328 333 334
330 329 328 331 334 339 341 344 344 344 345 345 343 343 344 343 339 333 335 336 335 334 334 333 332 331 331 331 330 329 328 329 329 329 329 330 330 330 329 327 320 327 332
327 328 331 335 336 341 342 341 346 344 343 343 337 336 335 334 333 334 336 336 336 335 334 333 332 331 331 330 330 329 328 329 329 329 329 330 330 331 331 330 324 319 329
330 333 333 338 340 344 346 345 343 345 343 337 335 334 333 332 333 335 335 335 335 334 334 332 331 330 330 329 329 328 328 329 329 331 329 328 328 329 330 328 330 320 325
336 336 339 343 347 347 348 347 345 341 338 337 334 332 334 334 335 336 335 335 336 335 333 332 331 330 328 327 329 328 328 328 329 330 331 330 327 328 326 327 331 330 324
336 339 342 345 349 349 347 347 346 342 338 336 334 332 333 336 336 335 333 333 334 333 333 332 330 329 328 327 327 327 327 327 327 328 329 330 330 329 327 330 331 327 324
339 341 342 345 349 348 347 345 343 339 337 335 334 333 334 334 335 334 333 333 332 332 332 331 330 329 328 327 326 324 325 326 324 327 328 329 330 328 330 332 332 332 330
340 340 340 344 347 346 345 341 339 338 337 336 335 334 335 335 335 332 332 331 332 330 330 330 329 329 328 328 328 327 326 327 324 325 328 329 329 328 329 331 332 331 333
340 341 344 345 344 341 340 339 337 334 334 335 335 334 336 335 334 333 333 332 331 330 330 329 329 328 329 328 327 328 327 326 326 323 324 327 329 328 330 331 330 331 332
341 343 343 343 341 340 337 335 334 335 337 334 336 336 335 334 334 334 333 331 331 330 329 330 330 329 329 328 328 329 329 325 323 323 321 324 325 329 329 330 332 331 330
Wind_Speed
20 29 29 26 22 20 17 16 14 13 11 10 9 8 7 7 7 6 6 6 6 6 4 2 2 1 2 1 2 2 3 5 6 6 5 3 2 2 5 5 11 7 8
24 30 29 27 24 22 20 18 17 15 12 10 9 9 7 7 6 5 5 5 4 4 3 2 1 1 2 2 1 2 3 4 6 8 8 6 3 2 5 5 8 8 9
25 32 31 28 25 23 21 20 18 16 14 12 10 8 7 6 5 5 4 3 3 3 3 2 1 1 2 2 3 3 4 4 5 7 9 9 6 4 5 6 7 7 11
25 32 32 29 26 24 23 21 19 17 15 13 11 9 8 7 6 5 5 5 5 5 4 3 3 4 4 4 4 4 5 6 6 7 9 8 7 8 10 9 9 8 12
25 30 31 30 27 25 24 23 21 20 17 15 12 10 8 7 6 5 5 6 6 7 7 6 6 6 6 7 7 6 6 6 7 7 7 5 6 9 14 12 8 11 11
24 25 28 29 28 27 25 24 23 22 19 17 15 13 11 9 7 6 6 7 8 7 7 8 9 9 9 9 11 10 10 9 7 8 5 5 9 9 5 7 7 9 11
22 22 24 29 29 27 26 25 24 24 23 21 18 15 14 12 9 7 8 9 8 9 9 9 9 7 10 11 13 13 11 10 9 9 8 11 10 10 9 7 6 8 11
26 25 25 28 31 31 29 28 27 25 25 24 22 19 17 15 12 10 10 9 10 11 11 10 10 11 13 14 13 13 15 13 10 11 11 12 12 9 12 8 5 6 9
32 30 29 30 32 34 34 33 31 29 27 26 25 23 21 18 15 13 12 10 11 12 13 13 13 13 12 12 13 12 14 14 14 14 13 13 7 12 13 13 13 10 9
34 36 36 33 33 36 38 37 35 32 30 28 26 25 22 20 17 16 14 14 14 13 13 14 13 13 14 14 13 15 15 14 14 14 13 16 12 12 17 15 12 10 12
27 39 39 38 38 38 40 40 37 35 32 30 28 27 24 22 20 17 15 15 16 15 14 14 15 15 14 14 14 14 17 17 17 17 17 14 13 10 13 13 10 8 11
12 38 42 40 39 40 39 40 40 38 36 34 31 29 27 25 22 17 15 14 20 17 16 13 14 10 11 13 14 13 15 18 18 19 16 16 13 15 14 12 10 9 11
21 12 36 39 40 40 40 40 41 41 38 35 34 31 28 26 21 19 19 20 15 18 18 14 14 13 11 9 6 10 17 19 16 14 17 21 18 18 18 15 11 10 13
25 21 17 35 40 43 39 39 39 39 37 36 37 32 29 26 22 20 19 21 18 20 18 15 16 15 11 11 11 13 16 13 14 15 8 17 22 22 19 15 12 11 14
26 23 7 16 29 38 40 37 38 37 36 33 31 32 32 28 23 20 21 16 14 13 15 14 19 12 11 11 14 15 12 14 17 16 18 9 14 23 19 16 12 12 16
25 13 11 11 21 34 43 40 40 37 36 32 29 27 31 29 24 21 18 18 15 15 14 11 10 11 12 12 13 14 15 14 15 15 14 13 14 17 16 15 12 15 16
14 12 16 19 21 31 38 40 39 35 33 31 30 29 29 29 28 20 17 15 16 17 16 15 17 14 13 14 14 14 16 17 16 14 11 11 17 16 17 17 14 17 17
15 15 18 17 19 28 40 33 32 32 31 32 31 28 28 31 25 19 17 16 12 13 16 17 17 17 15 14 15 15 13 18 15 16 18 14 13 16 14 17 14 17 19
15 18 15 19 23 31 37 40 25 24 25 24 23 20 22 22 20 19 17 15 13 15 14 13 14 16 15 15 14 12 12 11 14 16 18 15 17 15 11 15 17 19 21
13 10 15 20 25 30 32 29 26 17 19 18 17 17 18 18 18 15 15 17 19 18 18 14 16 17 15 15 13 12 12 11 14 14 15 17 17 18 17 15 19 20 21
15 16 16 22 27 31 31 28 24 21 18 15 14 16 15 16 16 15 14 15 16 18 16 15 13 13 14 14 11 8 8 11 14 15 13 16 17 17 16 16 14 22 22
15 16 17 22 30 30 31 26 26 20 20 17 15 17 16 17 17 14 13 15 16 17 15 15 14 12 10 10 4 2 2 3 13 17 17 17 21 19 18 14 14 17 20
22 21 21 22 27 25 27 23 21 17 16 18 18 19 20 19 15 13 13 13 12 12 12 10 11 13 11 12 14 5 1 3 1 11 17 19 17 19 18 14 17 16 18
21 22 20 21 25 23 26 23 22 20 11 17 16 16 17 16 12 9 10 10 8 9 7 8 12 14 15 14 9 18 15 1 0 1 5 10 15 14 16 12 16 17 17
26 25 24 26 24 21 19 16 17 18 10 11 12 12 14 10 8 9 7 6 7 8 9 9 10 14 15 15 15 6 19 7 4 2 2 2 10 10 10 14 15 15 14
26 28 28 25 22 17 18 18 16 11 7 13 17 16 12 8 9 8 6 5 7 8 8 8 9 10 11 13 14 13 9 9 8 5 2 2 5 7 8 12 14 14 14
Wind_Direction
165 168 167 167 164 157 152 149 146 145 140 137 132 127 125 119 120 120 117 113 115 118 115 97 76 70 73 57 26 329 280 274 282 295 308 319 296 225 198 171 119 121 137
167 172 170 172 167 163 161 159 158 154 150 146 143 138 135 130 131 131 135 138 136 128 121 114 79 17 354 348 324 316 312 309 299 280 283 284 254 251 252 170 151 164 154
167 174 174 175 172 169 168 165 165 163 158 154 150 143 140 140 150 146 158 170 162 167 163 173 226 279 281 282 288 294 286 295 298 304 277 268 268 268 271 239 196 180 169
170 175 176 177 178 174 174 173 173 171 166 161 159 153 153 163 171 176 187 203 190 198 215 229 240 248 262 262 262 262 280 284 287 291 286 267 246 277 285 258 225 208 184
170 177 178 180 182 181 180 180 180 177 174 172 170 171 174 178 181 196 207 218 213 214 224 236 252 254 252 251 261 265 267 281 287 288 291 262 247 300 285 230 226 220 202
168 176 182 185 188 188 187 188 186 185 182 183 185 185 188 190 193 211 226 228 225 229 241 250 255 252 250 253 256 259 265 266 278 287 272 284 288 297 202 208 209 213 210
170 177 187 191 193 196 195 196 195 194 192 194 196 197 198 197 204 216 231 237 240 240 246 256 268 272 258 259 252 248 250 247 258 278 271 279 297 255 220 211 203 220 211
182 186 186 191 197 200 200 203 203 203 203 201 201 203 203 202 208 217 227 235 241 246 247 254 252 258 257 259 258 247 240 242 245 254 259 271 289 236 218 238 244 230 227
189 191 189 191 196 202 204 204 206 208 210 211 210 208 207 206 209 218 233 240 240 246 250 257 264 263 262 264 257 248 236 239 248 253 247 247 306 238 225 226 242 247 243
189 194 195 194 198 203 207 208 207 210 212 214 217 218 214 213 215 223 236 246 244 242 249 253 261 263 270 269 253 244 236 237 241 249 250 243 257 247 224 218 230 237 228
191 197 196 197 200 205 208 210 209 211 214 217 220 222 221 220 221 229 242 244 251 238 239 255 262 264 266 269 259 243 239 236 239 251 254 246 244 219 209 198 215 226 213
284 200 200 200 204 204 207 212 212 211 212 215 219 222 224 227 230 241 237 246 246 245 238 250 260 261 260 267 261 245 239 240 244 246 240 245 245 216 210 203 208 223 222
287 242 207 208 208 208 206 211 212 213 213 215 219 223 227 230 236 234 236 237 240 235 232 243 249 247 252 258 259 234 260 242 243 243 242 242 238 213 213 204 205 227 224
274 275 213 213 210 211 203 206 209 210 214 218 222 222 225 225 230 236 244 242 246 238 233 237 241 243 236 242 253 267 249 230 239 242 262 260 236 224 209 206 209 216 217
266 260 240 212 213 217 204 201 207 207 210 212 219 222 220 221 223 225 233 246 243 227 223 241 241 236 223 231 246 254 240 241 249 247 248 263 229 216 213 210 210 213 212
250 229 256 236 223 217 203 199 205 205 210 208 215 218 216 215 215 220 237 237 227 200 219 241 210 227 244 242 250 253 253 250 250 258 241 235 207 210 220 225 220 206 203
209 231 250 247 240 225 209 199 203 204 205 207 209 211 212 206 213 219 230 233 242 237 250 237 248 249 252 251 242 254 267 255 245 240 238 224 211 217 231 239 227 205 202
216 228 263 231 225 216 208 189 201 202 197 206 206 201 199 200 212 218 230 235 246 246 233 241 247 252 249 248 244 246 280 249 245 243 230 221 224 214 224 235 229 211 205
240 260 251 208 207 204 204 198 179 181 191 180 172 174 184 194 204 215 230 234 242 244 238 248 246 244 246 242 245 244 247 230 243 236 229 218 220 220 246 248 234 213 212
233 231 195 197 198 195 191 190 191 181 180 164 182 193 198 203 213 227 235 237 242 249 255 251 242 239 240 246 247 241 231 236 237 232 227 227 222 226 227 247 230 218 214
152 153 172 176 184 181 171 169 177 160 161 175 178 182 193 206 210 223 232 233 247 252 260 246 232 242 242 238 243 218 238 243 242 231 230 232 228 223 231 235 245 220 210
151 151 160 169 175 171 167 167 176 173 170 181 190 206 209 194 197 213 239 248 250 254 248 222 231 240 240 218 172 106 326 285 245 235 232 231 239 232 232 230 204 208 210
156 152 150 150 167 161 163 165 164 167 180 195 205 205 203 203 213 226 240 249 256 261 255 250 229 223 224 212 212 162 168 238 178 230 233 238 238 216 208 206 210 214 210
154 150 151 154 154 153 161 161 169 169 168 200 187 191 190 192 204 223 241 250 251 253 237 243 238 228 225 224 219 228 241 296 203 340 204 212 203 213 228 195 198 210 204
146 140 145 149 145 149 165 162 165 163 160 159 187 155 164 177 208 220 237 258 233 227 236 231 221 226 228 230 220 211 230 250 299 210 168 179 198 215 207 200 195 196 185
137 139 142 149 149 147 161 159 154 144 138 152 144 145 153 182 215 229 217 229 223 229 227 233 230 226 222 226 227 230 220 163 218 192 161 217 157 177 182 183 181 173 167